Tracking 35331 objects as of 16-Sep-2026
HD Live streaming from Space Station
objects crossing your sky now

SL-6 PLAT


SL-6 PLAT is no longer on orbit


NORAD ID: 15216
Int'l Code: 1984-089C
Launch date: August 24, 1984
Source: Commonwealth of Independent States (former USSR) (CIS)
Launch site: PLESETSK MISSILE AND SPACE COMPLEX (PKMTR)
Decay date: 1984-09-13
Your satellite tracking list
Your tracking list is empty




NASA's NSSDC Master Catalog

Two Line Element Set (TLE):
1 15216U 84089  C 84257.64288911  .29805163 +40526-4 +28647-3 0  9994
2 15216 062.8015 329.8074 0012311 134.7153 225.8304 16.50460184003264
Source of the keplerian elements: AFSPC